Location: Observatoire
(46.1952°N, 5.3391°E)
Time: 03:27:06
(UTC+02:00)

ITAMSAT 1 - Pass Details

Date: 26 April 2024
Orbit: 782 x 796 km, 98.8° (Epoch: 24 May)

Event Time Altitude Azimuth Distance (km) Brightness Sun altitude
Exits shadow 22:17:07 10° 179° (S) 2,399 9.8 -15.1°
Reaches altitude 10° 22:17:13 10° 179° (S) 2,359 9.7 -15.1°
Maximum altitude 22:22:22 59° 259° (WSW) 917 8.2 -15.8°
Drops below altitude 10° 22:27:33 10° 339° (NNW) 2,373 11.1 -16.5°
Sets 22:29:55 0° 343° (NNW) 3,306 11.9 -16.8°
